#timestamp,LO_Frequency,Hit,StdDev 
1666940415.9,286046998.3,N
1666940435.7,286047001.2,N
1666940455.6,286046998.1,N
1666940475.4,286047000.8,N
1666940495.2,286047000.4,N
1666940515.1,286047000.7,N
1666940516.0,286047000.7,N
1666940535.8,286046999.8,N
1666940555.7,286047001.2,N
1666940575.5,286047001.1,N
1666940595.3,286046999.9,N
1666940615.2,286047000.1,N
1666940635.0,286047000.1,N
1666940635.9,286047000.1,N
1666940655.8,286047001.0,N
1666940675.6,286046998.5,N
1666940695.4,286046998.9,N
1666940715.3,286046999.5,N
1666940735.1,286046997.1,N
1666940755.8,286046998.0,N
1666940775.7,286046997.4,N
1666940795.5,286046996.2,Y
1666940815.4,286046996.2,P
1666940835.2,286046994.9,N
1666940855.0,286046996.6,N
1666940855.9,286046996.6,N
1666940875.8,286046998.4,N
1666940895.6,286047001.1,N
1666940915.4,286047000.0,N
1666940935.3,286047002.4,N
1666940955.1,286047001.6,N
1666940975.9,286047002.2,N
1666940995.7,286046999.6,N
1666941015.5,286046999.0,N
1666941035.4,286046999.3,N
1666941055.2,286046997.2,N
1666941075.0,286046999.3,N
1666941075.9,286046999.3,N
1666941095.8,286046998.2,N
1666941115.6,286047000.3,N
1666941135.5,286047002.8,N
1666941155.3,286047001.5,N
1666941175.1,286047002.6,N
1666941195.9,286047001.8,N
1666941215.7,286047001.6,N
1666941235.5,286047001.6,N
1666941255.4,286047011.9,Y
1666941275.2,286047001.3,P
1666941295.1,286047001.6,N
1666941296.0,286047001.6,N
1666941315.8,286046998.4,N
1666941335.6,286046998.8,N
1666941385.5,286047000.9,E
1666941395.4,286046998.2,N
1666941415.3,286046999.0,P
1666941435.1,286047000.8,N
1666941455.8,286047000.7,N
1666941475.7,286047000.6,N
1666941495.5,286047000.4,N
1666941515.4,286047002.8,N
1666941535.2,286047000.0,N
1666941555.0,286047000.6,N
1666941555.9,286047000.6,N
1666941575.8,286047002.2,N
1666941595.6,286047001.5,N
1666941615.5,286046998.6,N
1666941635.3,286046999.2,N
1666941655.1,286046998.5,N
1666941675.9,286046998.2,N
1666941695.7,286047000.3,N
1666941715.5,286047001.2,N
1666941735.4,286046998.3,N
1666941755.2,286046998.6,N
1666941775.1,286046999.7,N
1666941776.0,286046999.7,N
1666941795.8,286047001.1,N
1666941815.6,286046998.9,N
1666941835.5,286046999.4,N
1666941855.3,286046997.8,N
1666941875.1,286046996.6,N
1666941895.9,286046999.4,N
1666941915.7,286046996.7,N
1666941935.6,286046998.0,N
1666941955.4,286046997.7,N
1666941975.2,286046999.4,N
1666941995.1,286046998.1,N
1666941996.0,286046998.1,N
1666942015.8,286047000.3,N
1666942035.6,286047001.1,N
1666942055.5,286046998.2,N
1666942075.3,286046996.5,N
1666942095.2,286047000.7,N
1666942115.9,286046998.2,N
1666942135.7,286046998.5,N
1666942155.6,286046996.8,N
1666942175.4,286046997.9,N
1666942195.2,286046999.5,N
1666942215.1,286046998.8,N
1666942216.0,286046998.8,N
1666942235.8,286046998.7,N
1666942255.7,286047000.8,N
1666942275.5,286046998.6,N
1666942295.3,286047000.8,N
1666942315.2,286047000.7,N
1666942335.0,286047000.7,N
1666942335.9,286047000.7,N
1666942355.8,286047000.5,N
1666942375.6,286047000.1,N
1666942395.4,286047000.3,N
1666942415.3,286046999.7,N
1666942435.1,286047002.5,N
1666942455.8,286046998.1,N
1666942475.7,286046998.3,N
1666942495.5,286046999.3,N
1666942515.4,286046998.9,N
1666942535.2,286047000.7,N
1666942555.0,286047001.6,N
1666942555.9,286047001.6,N
1666942575.8,286046999.9,N
1666942595.6,286047000.8,N
1666942645.5,286046998.6,E
1666942655.4,286046998.5,N
1666942675.2,286047002.7,P
1666942695.1,286047001.6,N
1666942696.0,286047001.6,N
1666942715.8,286047001.7,N
1666942735.6,286047004.0,N
1666942755.5,286047004.3,N
1666942775.3,286047001.8,N
1666942795.2,286047000.0,N
1666942815.9,286047000.6,N
1666942835.7,286046998.4,N
1666942855.6,286046999.5,N
1666942875.4,286047000.4,N
1666942895.2,286047000.0,N
1666942915.1,286047000.5,N
1666942916.0,286047000.5,N
1666942935.8,286047000.0,N
1666942955.7,286046998.3,N
1666942975.5,286047000.8,N
1666942995.3,286047000.4,N
1666943015.2,286046998.5,N
1666943035.0,286046998.2,N
1666943035.9,286046998.2,N
1666943055.8,286046997.7,N
1666943075.6,286046997.1,N
1666943095.4,286047001.2,N
1666943115.3,286047002.7,N
1666943135.1,286047001.8,N
1666943155.8,286047003.8,N
1666943175.7,286047003.7,N
1666943195.5,286047005.3,N
1666943215.4,286047004.9,N
1666943235.2,286047005.5,N
1666943255.0,286047005.4,N
1666943255.9,286047005.4,N
1666943275.8,286047005.3,N
1666943295.6,286047005.2,N
1666943315.5,286047004.8,N
1666943335.3,286047005.3,N
1666943355.1,286047003.5,N
1666943375.9,286047003.7,N
1666943395.7,286047003.4,N
1666943415.5,286047003.1,N
1666943435.4,286047004.4,N
1666943455.2,286047004.4,N
1666943475.1,286047004.1,N
1666943476.0,286047004.1,N
1666943495.8,286047003.7,N
1666943515.6,286047002.2,N
1666943535.5,286047002.4,N
1666943555.3,286047002.4,N
1666943575.1,286047002.6,N
1666943595.9,286047004.4,N
1666943615.7,286047001.4,N
1666943635.6,286047001.5,N
1666943655.4,286047004.4,Y
1666943675.2,286046999.3,P
1666943695.1,286046998.6,N
1666943696.0,286046998.6,N
1666943715.8,286046999.4,N
1666943735.6,286046998.9,N
1666943755.5,286046999.0,N
1666943775.3,286046999.4,N
1666943795.2,286046997.0,N
1666943815.0,286046999.1,N
1666943815.9,286046999.1,N
1666943835.8,286046999.5,N
1666943855.6,286046994.9,Y
1666943875.5,286046996.8,P
1666943895.3,286046997.8,N
1666943915.1,286046994.9,P
1666943935.9,286046995.6,N
1666943955.7,286046996.1,N
1666943975.6,286046996.1,N
1666943995.4,286046995.1,Y
